Elwood, KS

3:56 PM CST on January 17, 2017 (GMT -0600)
Rosecrans Memorial

Weather History for KSTJ - November, 2011

Change the Weather History Date:

Tuesday, November 15, 2011

  Actual Average Record
Temperature  
Mean Temperature 46 °F 42 °F  
Max Temperature 63 °F 53 °F 78 °F (1950)
Min Temperature 29 °F 31 °F 8 °F (1940)
Degree Days  
Heating Degree Days 19 23  
Month to date heating degree days 286 292  
Since 1 July heating degree days 625 711  
Cooling Degree Days 0 0  
Month to date cooling degree days 0 0  
Year to date cooling degree days 494 1220  
Moisture  
Dew Point 31 °F    
Average Humidity 60    
Maximum Humidity 92    
Minimum Humidity 27    
Precipitation  
Precipitation 0.00 in 0.04 in 2.10 in (1964)
Month to date precipitation 3.40 0.93  
Year to date precipitation 17.35 33.46  
Sea Level Pressure  
Sea Level Pressure 29.81 in    
Wind  
Wind Speed 7 mph (NNW)    
Max Wind Speed 16 mph    
Max Gust Speed 21 mph    
Visibility 10 miles    
Events      
T = Trace of Precipitation, MM = Missing Value Source: NWS Daily Summary

Daily Weather History Graph

Daily Weather History Graph

Search for Another Location

Airport or City:

Trip Planner

Search our weather history database for the weather conditions in past years. The results will help you decide how hot, cold, wet, or windy it might be!

Date:

Astronomy

Nov. 15, 2011 Rise Set
Actual Time 7:03 AM CST 5:03 PM CST
Civil Twilight 6:35 AM CST 5:32 PM CST
Nautical Twilight 6:02 AM CST 6:05 PM CST
Astronomical Twilight 5:30 AM CST 6:37 PM CST
Moon 9:13 PM CST (11/15) 11:04 AM CST (11/15)
Length of Visible Light 10h 57m
Length of Day
10h 00m
Waning Gibbous, 79% of the Moon is Illuminated
Nov 15
Waning Gibbous
Nov 18
Last Quarter
Nov 25
New
Dec 2
First Quarter
Dec 10
Full

Hourly Weather History & Observations

Time (CST) Temp. Windchill Dew Point Humidity Pressure Visibility Wind Dir Wind Speed Gust Speed Precip Events Conditions
12:53 AM 37.0 °F - 34.0 °F 89% 29.73 in 10.0 mi Calm Calm - N/A   Clear
1:53 AM 37.0 °F 33.3 °F 30.9 °F 79% 29.70 in 10.0 mi South 4.6 mph - N/A   Clear
2:53 AM 30.9 °F - 28.9 °F 92% 29.70 in 10.0 mi Calm Calm - N/A   Clear
3:53 AM 32.0 °F - 28.0 °F 85% 29.70 in 10.0 mi Calm Calm - N/A   Clear
4:53 AM 35.1 °F - 30.0 °F 82% 29.73 in 10.0 mi Calm Calm - N/A   Clear
5:53 AM 33.1 °F 28.7 °F 30.0 °F 89% 29.73 in 10.0 mi SSE 4.6 mph - N/A   Clear
6:53 AM 33.8 °F - 30.2 °F 87% 29.71 in 10.0 mi Calm Calm - N/A   Clear
7:53 AM 37.4 °F - 33.8 °F 87% 29.72 in 10.0 mi Calm Calm - N/A   Clear
8:53 AM 44.1 °F 41.5 °F 35.1 °F 71% 29.77 in 10.0 mi SSW 4.6 mph - N/A   Clear
9:53 AM 50.0 °F - 35.1 °F 57% 29.77 in 10.0 mi SSW 4.6 mph - N/A   Clear
10:53 AM 57.0 °F - 34.0 °F 42% 29.77 in 10.0 mi NNE 6.9 mph - N/A   Clear
11:16 AM 57.2 °F - 30.2 °F 36% 29.77 in 1.5 mi Calm Calm - N/A   Haze
11:24 AM 57.2 °F - 30.2 °F 36% 29.77 in 10.0 mi Calm Calm - N/A   Clear
11:53 AM 57.9 °F - 30.9 °F 36% 29.76 in 10.0 mi West 3.5 mph - N/A   Clear
12:53 PM 61.0 °F - 28.0 °F 29% 29.75 in 10.0 mi NW 9.2 mph - N/A   Clear
1:53 PM 62.1 °F - 28.9 °F 29% 29.75 in 10.0 mi NW 9.2 mph - N/A   Clear
2:53 PM 61.0 °F - 36.0 °F 39% 29.77 in 10.0 mi NW 10.4 mph - N/A   Clear
3:53 PM 57.9 °F - 37.9 °F 47% 29.81 in 10.0 mi WNW 12.7 mph - N/A   Clear
4:53 PM 53.1 °F - 33.1 °F 47% 29.83 in 10.0 mi North 11.5 mph - N/A   Clear
5:53 PM 50.0 °F - 28.9 °F 44% 29.90 in 10.0 mi North 13.8 mph - N/A   Clear
6:53 PM 46.9 °F - 30.0 °F 52% 29.95 in 10.0 mi North 11.5 mph - N/A   Clear
7:53 PM 44.1 °F 38.6 °F 30.0 °F 58% 29.97 in 10.0 mi North 10.4 mph - N/A   Clear
8:53 PM 43.0 °F 36.8 °F 28.9 °F 58% 29.99 in 10.0 mi North 11.5 mph - N/A   Clear
9:53 PM 39.9 °F 33.4 °F 28.0 °F 63% 30.02 in 10.0 mi North 10.4 mph - N/A   Clear
10:53 PM 39.0 °F 31.8 °F 26.1 °F 60% 30.04 in 10.0 mi North 11.5 mph - N/A   Clear
11:53 PM 37.0 °F 29.8 °F 26.1 °F 65% 30.05 in 10.0 mi NNE 10.4 mph - N/A   Clear